TIV80 KSQL-KCRQ

Flight info

Callsign TIV80
Flight time 1h 9m
Altitude 17000
Route OSI EUGEN V27 BSR/N0403F410 AVE LHS/N0358F170 V459 SLI V23 OCN
Aircraft C25B/M-SDE2E3FGHRWXY/LB1

Departure

Time 2026-04-23 02:39
Airport San Carlos Airport (KSQL)

Arrival

Time 2026-04-23 03:49
Airport McClellan-Palomar Airport (KCRQ)
Time Latitude Longitude Altitude Speed Heading
2026-04-23 02:26 37.51485 -122.25096 8 ft 0 kts 316°
2026-04-23 02:36 37.51487 -122.25099 8 ft 3 kts 312°
2026-04-23 02:37 37.51474 -122.25149 8 ft 10 kts 229°
2026-04-23 02:37 37.51416 -122.25115 8 ft 13 kts 136°
2026-04-23 02:37 37.51334 -122.25024 8 ft 17 kts 139°
2026-04-23 02:37 37.51238 -122.24914 8 ft 19 kts 139°
2026-04-23 02:38 37.51124 -122.24813 8 ft 22 kts 145°
2026-04-23 02:38 37.51023 -122.24703 8 ft 16 kts 137°
2026-04-23 02:38 37.50952 -122.24654 7 ft 12 kts 173°
2026-04-23 02:38 37.50931 -122.24656 7 ft 1 kts 167°
2026-04-23 02:39 37.50923 -122.24658 7 ft 2 kts 280°
2026-04-23 02:39 37.50924 -122.24660 7 ft 1 kts 319°
2026-04-23 02:39 37.51278 -122.25060 20 ft 132 kts 315°
2026-04-23 02:39 37.52116 -122.25999 847 ft 179 kts 315°
2026-04-23 02:40 37.52776 -122.27492 1962 ft 212 kts 282°
2026-04-23 02:40 37.52542 -122.29316 3454 ft 225 kts 241°
2026-04-23 02:40 37.51313 -122.30556 4891 ft 234 kts 198°
2026-04-23 02:40 37.49681 -122.30600 6317 ft 240 kts 170°
2026-04-23 02:41 37.48010 -122.30137 7781 ft 251 kts 166°
2026-04-23 02:41 37.46293 -122.29669 9447 ft 259 kts 170°
2026-04-23 02:41 37.44512 -122.29280 10933 ft 261 kts 172°
2026-04-23 02:41 37.42672 -122.28890 11650 ft 273 kts 172°
2026-04-23 02:42 37.40784 -122.28491 12501 ft 276 kts 175°
2026-04-23 02:42 37.38869 -122.28617 13359 ft 275 kts 194°
2026-04-23 02:42 37.37043 -122.29329 14156 ft 275 kts 209°
2026-04-23 02:42 37.35294 -122.30328 14942 ft 277 kts 207°
2026-04-23 02:43 37.33522 -122.31256 15725 ft 280 kts 209°
2026-04-23 02:43 37.31721 -122.32238 16547 ft 282 kts 210°
2026-04-23 02:43 37.29914 -122.33229 17355 ft 284 kts 210°
2026-04-23 02:43 37.28094 -122.34228 18165 ft 287 kts 210°
2026-04-23 02:44 37.26259 -122.35226 18918 ft 289 kts 211°
2026-04-23 02:44 37.24404 -122.36234 19628 ft 291 kts 211°
2026-04-23 02:44 37.22565 -122.37238 20322 ft 293 kts 211°
2026-04-23 02:44 37.20681 -122.38262 21021 ft 295 kts 211°
2026-04-23 02:45 37.18784 -122.39296 21728 ft 298 kts 211°
2026-04-23 02:45 37.16867 -122.40337 22423 ft 300 kts 212°
2026-04-23 02:45 37.14934 -122.41384 23115 ft 304 kts 211°
2026-04-23 02:45 37.12858 -122.42117 23778 ft 317 kts 198°
2026-04-23 02:46 37.10656 -122.42369 24335 ft 329 kts 188°
2026-04-23 02:46 37.08339 -122.42057 24905 ft 341 kts 177°
2026-04-23 02:46 37.06035 -122.41122 25462 ft 354 kts 165°
2026-04-23 02:46 37.03858 -122.39544 25993 ft 368 kts 152°
2026-04-23 02:47 37.01781 -122.37684 26501 ft 372 kts 152°
2026-04-23 02:47 36.99648 -122.35790 27031 ft 376 kts 152°
2026-04-23 02:47 36.97518 -122.33895 27568 ft 379 kts 153°
2026-04-23 02:47 36.95367 -122.31976 28227 ft 379 kts 153°
2026-04-23 02:48 36.93213 -122.30067 28879 ft 379 kts 154°
2026-04-23 02:48 36.91087 -122.28181 29522 ft 380 kts 154°
2026-04-23 02:48 36.88928 -122.26268 30204 ft 380 kts 155°
2026-04-23 02:48 36.86771 -122.24355 30809 ft 379 kts 155°
2026-04-23 02:49 36.84622 -122.22452 31440 ft 378 kts 155°
2026-04-23 02:49 36.82496 -122.20570 32072 ft 377 kts 156°
2026-04-23 02:49 36.80349 -122.18674 32732 ft 376 kts 156°
2026-04-23 02:49 36.78217 -122.16787 33415 ft 374 kts 156°
2026-04-23 02:50 36.76119 -122.14937 34098 ft 373 kts 157°
2026-04-23 02:50 36.74001 -122.13068 34716 ft 371 kts 157°
2026-04-23 02:50 36.71889 -122.11209 35333 ft 370 kts 157°
2026-04-23 02:50 36.70500 -122.09979 35732 ft 369 kts 156°
2026-04-23 02:51 36.67731 -122.07526 36537 ft 366 kts 157°
2026-04-23 02:51 36.65650 -122.05697 37138 ft 364 kts 158°
2026-04-23 02:51 36.63572 -122.03877 37758 ft 363 kts 157°
2026-04-23 02:51 36.62203 -122.02670 38157 ft 362 kts 157°
2026-04-23 02:52 36.59480 -122.00276 38947 ft 360 kts 158°
2026-04-23 02:52 36.58095 -121.99061 39269 ft 359 kts 157°
2026-04-23 02:52 36.56085 -121.97299 39723 ft 358 kts 157°
2026-04-23 02:52 36.54042 -121.95508 40177 ft 357 kts 157°
2026-04-23 02:53 36.52011 -121.93728 40620 ft 357 kts 156°
2026-04-23 02:53 36.49983 -121.91942 41087 ft 356 kts 156°
2026-04-23 02:53 36.47931 -121.90122 41216 ft 368 kts 155°
2026-04-23 02:53 36.45826 -121.88260 41226 ft 382 kts 155°
2026-04-23 02:54 36.43608 -121.86305 41236 ft 395 kts 155°
2026-04-23 02:54 36.41315 -121.84319 41238 ft 408 kts 155°
2026-04-23 02:54 36.38944 -121.82268 41236 ft 420 kts 154°
2026-04-23 02:55 36.34071 -121.78020 41212 ft 438 kts 154°
2026-04-23 02:55 36.28983 -121.73613 41226 ft 453 kts 154°
2026-04-23 02:56 36.23790 -121.69105 41219 ft 456 kts 154°
2026-04-23 02:56 36.19128 -121.63741 41212 ft 467 kts 136°
2026-04-23 02:57 36.15801 -121.56766 41203 ft 476 kts 117°
2026-04-23 02:57 36.13414 -121.49130 41195 ft 473 kts 116°
2026-04-23 02:58 36.11045 -121.41614 41189 ft 470 kts 116°
2026-04-23 02:58 36.08677 -121.34086 41186 ft 468 kts 116°
2026-04-23 02:59 36.06310 -121.26602 41177 ft 466 kts 116°
2026-04-23 02:59 36.03969 -121.19196 41181 ft 464 kts 116°
2026-04-23 03:00 36.01606 -121.11756 41177 ft 463 kts 116°
2026-04-23 03:00 35.99260 -121.04384 41173 ft 463 kts 116°
2026-04-23 03:01 35.96900 -120.96986 41168 ft 462 kts 116°
2026-04-23 03:01 35.94551 -120.89642 41168 ft 461 kts 117°
2026-04-23 03:02 35.92186 -120.82271 41169 ft 461 kts 117°
2026-04-23 03:02 35.89836 -120.74953 41169 ft 461 kts 117°
2026-04-23 03:03 35.87463 -120.67599 41171 ft 461 kts 117°
2026-04-23 03:03 35.85089 -120.60244 41178 ft 461 kts 117°
2026-04-23 03:04 35.82725 -120.52947 41177 ft 461 kts 117°
2026-04-23 03:04 35.80338 -120.45593 41177 ft 461 kts 117°
2026-04-23 03:05 35.77944 -120.38237 41168 ft 462 kts 117°
2026-04-23 03:05 35.75562 -120.30939 41158 ft 461 kts 117°
2026-04-23 03:06 35.73162 -120.23598 41150 ft 462 kts 117°
2026-04-23 03:06 35.70762 -120.16280 41141 ft 461 kts 117°
2026-04-23 03:07 35.68352 -120.08943 41136 ft 461 kts 117°
2026-04-23 03:07 35.65951 -120.01661 41141 ft 461 kts 118°
2026-04-23 03:08 35.62769 -119.94985 41131 ft 443 kts 138°
2026-04-23 03:08 35.58839 -119.89190 41129 ft 443 kts 138°
2026-04-23 03:09 35.54915 -119.83372 41130 ft 442 kts 139°
2026-04-23 03:09 35.50972 -119.77559 41124 ft 442 kts 138°
2026-04-23 03:10 35.47055 -119.71779 41124 ft 442 kts 139°
2026-04-23 03:10 35.43102 -119.65965 41122 ft 442 kts 139°
2026-04-23 03:11 35.39182 -119.60205 41119 ft 442 kts 139°
2026-04-23 03:11 35.35223 -119.54401 41118 ft 442 kts 139°
2026-04-23 03:12 35.31284 -119.48637 40846 ft 446 kts 139°
2026-04-23 03:12 35.29286 -119.45712 40479 ft 444 kts 139°
2026-04-23 03:12 35.27303 -119.42809 40119 ft 442 kts 139°
2026-04-23 03:12 35.25346 -119.39953 39772 ft 440 kts 140°
2026-04-23 03:13 35.23374 -119.37082 39426 ft 439 kts 140°
2026-04-23 03:13 35.21410 -119.34221 39080 ft 438 kts 140°
2026-04-23 03:13 35.19449 -119.31361 38724 ft 437 kts 140°
2026-04-23 03:13 35.17514 -119.28549 38313 ft 436 kts 140°
2026-04-23 03:14 35.15561 -119.25709 37900 ft 435 kts 140°
2026-04-23 03:14 35.13615 -119.22882 37495 ft 434 kts 140°
2026-04-23 03:14 35.11692 -119.20092 37135 ft 432 kts 140°
2026-04-23 03:14 35.09779 -119.17304 37123 ft 421 kts 140°
2026-04-23 03:15 35.07911 -119.14595 37108 ft 411 kts 140°
2026-04-23 03:15 35.04323 -119.09410 37111 ft 393 kts 141°
2026-04-23 03:16 35.00862 -119.04404 37107 ft 379 kts 142°
2026-04-23 03:16 34.95884 -118.97225 37114 ft 362 kts 142°
2026-04-23 03:17 34.92666 -118.92591 37108 ft 352 kts 142°
2026-04-23 03:17 34.89526 -118.88075 37108 ft 345 kts 143°
2026-04-23 03:18 34.86466 -118.83683 37110 ft 338 kts 143°
2026-04-23 03:18 34.83437 -118.79335 37108 ft 333 kts 143°
2026-04-23 03:19 34.80454 -118.75069 36905 ft 336 kts 143°
2026-04-23 03:19 34.78913 -118.72875 36588 ft 345 kts 142°
2026-04-23 03:19 34.77329 -118.70610 36231 ft 355 kts 141°
2026-04-23 03:20 34.75710 -118.68289 35854 ft 364 kts 141°
2026-04-23 03:20 34.74046 -118.65908 35468 ft 373 kts 140°
2026-04-23 03:20 34.72369 -118.63512 35081 ft 380 kts 140°
2026-04-23 03:20 34.70634 -118.61036 34666 ft 387 kts 139°
2026-04-23 03:21 34.68772 -118.58680 34254 ft 387 kts 149°
2026-04-23 03:21 34.66581 -118.56761 33801 ft 388 kts 160°
2026-04-23 03:21 34.64155 -118.55275 33372 ft 391 kts 165°
2026-04-23 03:21 34.61709 -118.53840 32958 ft 399 kts 164°
2026-04-23 03:22 34.59178 -118.52349 32526 ft 406 kts 164°
2026-04-23 03:22 34.56606 -118.50838 32092 ft 411 kts 164°
2026-04-23 03:22 34.54042 -118.49342 31658 ft 415 kts 163°
2026-04-23 03:22 34.51421 -118.47808 31209 ft 419 kts 163°
2026-04-23 03:23 34.48780 -118.46262 30758 ft 421 kts 163°
2026-04-23 03:23 34.46138 -118.44718 30322 ft 422 kts 163°
2026-04-23 03:23 34.43490 -118.43167 29839 ft 423 kts 163°
2026-04-23 03:23 34.40835 -118.41623 29386 ft 422 kts 163°
2026-04-23 03:24 34.38229 -118.40104 28947 ft 421 kts 163°
2026-04-23 03:24 34.35652 -118.38603 28517 ft 420 kts 162°
2026-04-23 03:24 34.33148 -118.37144 28096 ft 420 kts 162°
2026-04-23 03:24 34.30502 -118.35603 27654 ft 419 kts 162°
2026-04-23 03:25 34.27874 -118.34077 27215 ft 418 kts 162°
2026-04-23 03:25 34.25283 -118.32574 26767 ft 418 kts 162°
2026-04-23 03:25 34.22649 -118.31041 26335 ft 417 kts 162°
2026-04-23 03:25 34.20031 -118.29529 25891 ft 417 kts 162°
2026-04-23 03:26 34.17403 -118.27996 25447 ft 417 kts 162°
2026-04-23 03:26 34.14813 -118.26503 25018 ft 416 kts 162°
2026-04-23 03:26 34.12195 -118.24986 24578 ft 416 kts 162°
2026-04-23 03:26 34.09582 -118.23477 24137 ft 415 kts 162°
2026-04-23 03:27 34.06969 -118.21962 23703 ft 415 kts 162°
2026-04-23 03:27 34.04396 -118.20477 23231 ft 413 kts 162°
2026-04-23 03:27 34.01806 -118.18980 22790 ft 410 kts 162°
2026-04-23 03:27 33.99231 -118.17497 22360 ft 408 kts 162°
2026-04-23 03:28 33.96704 -118.16037 21928 ft 405 kts 162°
2026-04-23 03:28 33.94165 -118.14579 21504 ft 403 kts 162°
2026-04-23 03:28 33.91631 -118.13115 21082 ft 401 kts 161°
2026-04-23 03:28 33.89109 -118.11668 20658 ft 399 kts 162°
2026-04-23 03:29 33.86630 -118.10241 20242 ft 398 kts 161°
2026-04-23 03:29 33.84125 -118.08803 19824 ft 396 kts 161°
2026-04-23 03:29 33.81636 -118.07373 19379 ft 395 kts 161°
2026-04-23 03:29 33.79217 -118.05884 18963 ft 398 kts 155°
2026-04-23 03:30 33.76986 -118.03851 18546 ft 403 kts 145°
2026-04-23 03:30 33.74964 -118.01482 18094 ft 404 kts 140°
2026-04-23 03:30 33.73000 -117.99151 17669 ft 396 kts 141°
2026-04-23 03:30 33.71065 -117.96872 17296 ft 382 kts 140°
2026-04-23 03:31 33.69197 -117.94673 16897 ft 371 kts 140°
2026-04-23 03:31 33.67382 -117.92527 16514 ft 362 kts 140°
2026-04-23 03:31 33.65600 -117.90421 16136 ft 354 kts 140°
2026-04-23 03:31 33.63852 -117.88366 15769 ft 349 kts 140°
2026-04-23 03:32 33.62153 -117.86359 15410 ft 344 kts 140°
2026-04-23 03:32 33.60440 -117.84348 15047 ft 341 kts 140°
2026-04-23 03:32 33.58753 -117.82351 14692 ft 339 kts 140°
2026-04-23 03:32 33.57067 -117.80378 14339 ft 336 kts 140°
2026-04-23 03:33 33.55417 -117.78437 13988 ft 334 kts 139°
2026-04-23 03:33 33.53758 -117.76483 13612 ft 333 kts 139°
2026-04-23 03:33 33.52107 -117.74546 13253 ft 330 kts 139°
2026-04-23 03:33 33.50364 -117.72816 12659 ft 322 kts 157°
2026-04-23 03:34 33.48250 -117.72262 11918 ft 304 kts 189°
2026-04-23 03:34 33.46238 -117.72754 11161 ft 296 kts 202°
2026-04-23 03:34 33.44260 -117.73404 10419 ft 293 kts 200°
2026-04-23 03:34 33.42247 -117.73841 9643 ft 295 kts 191°
2026-04-23 03:35 33.40199 -117.73931 8899 ft 292 kts 185°
2026-04-23 03:35 33.38182 -117.74006 8196 ft 287 kts 187°
2026-04-23 03:35 33.36276 -117.74177 8110 ft 261 kts 188°
2026-04-23 03:35 33.34562 -117.74319 8063 ft 244 kts 189°
2026-04-23 03:36 33.32837 -117.74309 7593 ft 260 kts 173°
2026-04-23 03:36 33.31051 -117.73600 6987 ft 278 kts 156°
2026-04-23 03:36 33.29473 -117.72189 6381 ft 288 kts 135°
2026-04-23 03:36 33.28375 -117.70357 5778 ft 288 kts 116°
2026-04-23 03:37 33.27810 -117.68103 5189 ft 287 kts 98°
2026-04-23 03:37 33.27568 -117.65806 5112 ft 267 kts 97°
2026-04-23 03:37 33.27308 -117.63664 5105 ft 258 kts 97°
2026-04-23 03:37 33.27073 -117.61519 5105 ft 262 kts 97°
2026-04-23 03:38 33.26905 -117.60081 5102 ft 264 kts 98°
2026-04-23 03:38 33.26565 -117.57112 5028 ft 281 kts 97°
2026-04-23 03:38 33.26386 -117.55577 5003 ft 280 kts 98°
2026-04-23 03:38 33.26119 -117.53285 5005 ft 277 kts 97°
2026-04-23 03:39 33.25859 -117.51004 5004 ft 275 kts 98°
2026-04-23 03:39 33.25592 -117.48747 5004 ft 273 kts 97°
2026-04-23 03:39 33.25342 -117.46526 5007 ft 271 kts 97°
2026-04-23 03:39 33.25075 -117.44298 5005 ft 270 kts 97°
2026-04-23 03:40 33.24824 -117.42080 5005 ft 269 kts 97°
2026-04-23 03:40 33.24561 -117.39887 5002 ft 268 kts 97°
2026-04-23 03:40 33.24313 -117.37683 5004 ft 267 kts 97°
2026-04-23 03:40 33.24048 -117.35486 5003 ft 267 kts 98°
2026-04-23 03:41 33.23792 -117.33284 4999 ft 266 kts 98°
2026-04-23 03:41 33.23540 -117.31133 5003 ft 261 kts 97°
2026-04-23 03:41 33.23291 -117.29000 4998 ft 257 kts 98°
2026-04-23 03:41 33.23049 -117.26890 4990 ft 253 kts 95°
2026-04-23 03:42 33.23087 -117.24803 4987 ft 250 kts 86°
2026-04-23 03:42 33.23113 -117.22753 4986 ft 248 kts 90°
2026-04-23 03:42 33.23122 -117.20707 4936 ft 243 kts 88°
2026-04-23 03:42 33.23144 -117.18699 4713 ft 239 kts 89°
2026-04-23 03:43 33.23166 -117.16725 4454 ft 232 kts 90°
2026-04-23 03:43 33.22814 -117.14928 4189 ft 222 kts 116°
2026-04-23 03:43 33.21990 -117.13424 3937 ft 213 kts 135°
2026-04-23 03:43 33.20848 -117.12427 3701 ft 194 kts 154°
2026-04-23 03:44 33.19636 -117.11955 3488 ft 178 kts 172°
2026-04-23 03:44 33.18518 -117.11902 3312 ft 149 kts 188°
2026-04-23 03:44 33.17542 -117.12154 3129 ft 139 kts 201°
2026-04-23 03:44 33.16681 -117.12653 2964 ft 136 kts 215°
2026-04-23 03:45 33.15949 -117.13317 2809 ft 133 kts 227°
2026-04-23 03:45 33.15369 -117.14179 2654 ft 132 kts 238°
2026-04-23 03:45 33.14957 -117.15151 2532 ft 129 kts 252°
2026-04-23 03:45 33.14729 -117.16166 2382 ft 128 kts 262°
2026-04-23 03:46 33.14576 -117.17215 2193 ft 128 kts 259°
2026-04-23 03:46 33.14392 -117.18250 2046 ft 126 kts 260°
2026-04-23 03:46 33.14214 -117.19280 1860 ft 125 kts 261°
2026-04-23 03:46 33.14048 -117.20296 1670 ft 124 kts 261°
2026-04-23 03:47 33.13903 -117.21298 1496 ft 122 kts 263°
2026-04-23 03:47 33.13742 -117.22310 1258 ft 126 kts 262°
2026-04-23 03:47 33.13580 -117.23345 1067 ft 128 kts 260°
2026-04-23 03:47 33.13407 -117.24367 886 ft 126 kts 261°
2026-04-23 03:48 33.13248 -117.25389 729 ft 125 kts 262°
2026-04-23 03:48 33.13081 -117.26419 523 ft 123 kts 261°
2026-04-23 03:48 33.12930 -117.27338 346 ft 104 kts 261°
2026-04-23 03:48 33.12820 -117.28048 328 ft 55 kts 258°
2026-04-23 03:49 33.12758 -117.28249 327 ft 9 kts 229°
2026-04-23 03:49 33.12710 -117.28227 325 ft 14 kts 82°
2026-04-23 03:49 33.12727 -117.28103 327 ft 14 kts 83°
2026-04-23 03:49 33.12734 -117.28050 327 ft 1 kts 79°
2026-04-23 03:50 33.12736 -117.28022 327 ft 9 kts 118°
2026-04-23 03:50 33.12705 -117.28035 327 ft 5 kts 259°
2026-04-23 03:50 33.12704 -117.28038 327 ft 0 kts 259°